Year,Month,Day,Hour,Minute,Value (Times are PST for temperature in C)
2019,03,10,00,00,-0.60
2019,03,10,00,01,-0.60
2019,03,10,00,02,-0.60
2019,03,10,00,03,-0.60
2019,03,10,00,04,-0.60
2019,03,10,00,05,-0.60
2019,03,10,00,06,-0.60
2019,03,10,00,07,-0.60
2019,03,10,00,08,-0.60
2019,03,10,00,09,-0.60
2019,03,10,00,10,-0.60
2019,03,10,00,11,-0.60
2019,03,10,00,12,-0.60
2019,03,10,00,13,-0.60
2019,03,10,00,14,-0.60
2019,03,10,00,15,-0.60
2019,03,10,00,16,-0.60
2019,03,10,00,17,-0.60
2019,03,10,00,18,-0.60
2019,03,10,00,19,-0.60
2019,03,10,00,20,-0.60
2019,03,10,00,21,-0.60
2019,03,10,00,22,-0.60
2019,03,10,00,23,-0.60
2019,03,10,00,24,-0.60
2019,03,10,00,25,-0.60
2019,03,10,00,26,-0.60
2019,03,10,00,27,-0.60
2019,03,10,00,28,-0.60
2019,03,10,00,29,-0.60
2019,03,10,00,30,-0.60
2019,03,10,00,31,-0.60
2019,03,10,00,32,-0.70
2019,03,10,00,33,-0.70
2019,03,10,00,34,-0.70
2019,03,10,00,35,-0.70
2019,03,10,00,36,-0.70
2019,03,10,00,37,-0.70
2019,03,10,00,38,-0.80
2019,03,10,00,39,-0.80
2019,03,10,00,40,-0.80
2019,03,10,00,41,-0.80
2019,03,10,00,42,-0.80
2019,03,10,00,43,-0.80
2019,03,10,00,44,-0.80
2019,03,10,00,45,-0.80
2019,03,10,00,46,-0.80
2019,03,10,00,47,-0.80
2019,03,10,00,48,-0.80
2019,03,10,00,49,-0.90
2019,03,10,00,50,-0.90
2019,03,10,00,51,-0.90
2019,03,10,00,52,-0.90
2019,03,10,00,53,-0.90
2019,03,10,00,54,-0.90
2019,03,10,00,55,-0.90
2019,03,10,00,56,-0.90
2019,03,10,00,57,-0.90
2019,03,10,00,58,-0.90
2019,03,10,00,59,-1.00
2019,03,10,01,00,-0.90
2019,03,10,01,01,-1.00
2019,03,10,01,02,-1.00
2019,03,10,01,03,-1.00
2019,03,10,01,04,-1.00
2019,03,10,01,05,-1.00
2019,03,10,01,06,-1.00
2019,03,10,01,07,-1.00
2019,03,10,01,08,-1.00
2019,03,10,01,09,-1.00
2019,03,10,01,10,-1.00
2019,03,10,01,11,-1.00
2019,03,10,01,12,-1.10
2019,03,10,01,13,-1.10
2019,03,10,01,14,-1.10
2019,03,10,01,15,-1.10
2019,03,10,01,16,-1.10
2019,03,10,01,17,-1.10
2019,03,10,01,18,-1.10
2019,03,10,01,19,-1.10
2019,03,10,01,20,-1.10
2019,03,10,01,21,-1.10
2019,03,10,01,22,-1.10
2019,03,10,01,23,-1.10
2019,03,10,01,24,-1.10
2019,03,10,01,25,-1.10
2019,03,10,01,26,-1.10
2019,03,10,01,27,-1.10
2019,03,10,01,28,-1.10
2019,03,10,01,29,-1.10
2019,03,10,01,30,-1.10
2019,03,10,01,31,-1.10
2019,03,10,01,32,-1.10
2019,03,10,01,33,-1.10
2019,03,10,01,34,-1.10
2019,03,10,01,35,-1.00
2019,03,10,01,36,-1.00
2019,03,10,01,37,-0.90
2019,03,10,01,38,-0.90
2019,03,10,01,39,-0.90
2019,03,10,01,40,-0.90
2019,03,10,01,41,-0.80
2019,03,10,01,42,-0.80
2019,03,10,01,43,-0.80
2019,03,10,01,44,-0.80
2019,03,10,01,45,-0.80
2019,03,10,01,46,-0.80
2019,03,10,01,47,-0.80
2019,03,10,01,48,-0.80
2019,03,10,01,49,-0.80
2019,03,10,01,50,-0.80
2019,03,10,01,51,-0.80
2019,03,10,01,52,-0.80
2019,03,10,01,53,-0.80
2019,03,10,01,54,-0.80
2019,03,10,01,55,-0.80
2019,03,10,01,56,-0.80
2019,03,10,01,57,-0.80
2019,03,10,01,58,-0.80
2019,03,10,01,59,-0.80
2019,03,10,03,00,-0.80
2019,03,10,03,01,-0.80
2019,03,10,03,02,-0.80
2019,03,10,03,03,-0.80
2019,03,10,03,04,-0.80
2019,03,10,03,05,-0.80
2019,03,10,03,06,-0.80
2019,03,10,03,07,-0.80
2019,03,10,03,08,-0.80
2019,03,10,03,09,-0.80
2019,03,10,03,10,-0.80
2019,03,10,03,11,-0.80
2019,03,10,03,12,-0.80
2019,03,10,03,13,-0.90
2019,03,10,03,14,-0.90
2019,03,10,03,15,-0.90
2019,03,10,03,16,-0.90
2019,03,10,03,17,-0.90
2019,03,10,03,18,-1.00
2019,03,10,03,19,-1.00
2019,03,10,03,20,-1.00
2019,03,10,03,21,-1.00
2019,03,10,03,22,-1.10
2019,03,10,03,23,-1.10
2019,03,10,03,24,-1.10
2019,03,10,03,25,-1.20
2019,03,10,03,26,-1.20
2019,03,10,03,27,-1.20
2019,03,10,03,28,-1.20
2019,03,10,03,29,-1.20
2019,03,10,03,30,-1.20
2019,03,10,03,31,-1.30
2019,03,10,03,32,-1.20
2019,03,10,03,33,-1.30
2019,03,10,03,34,-1.30
2019,03,10,03,35,-1.30
2019,03,10,03,36,-1.20
2019,03,10,03,37,-1.20
2019,03,10,03,38,-1.20
2019,03,10,03,39,-1.20
2019,03,10,03,40,-1.20
2019,03,10,03,41,-1.20
2019,03,10,03,42,-1.20
2019,03,10,03,43,-1.20
2019,03,10,03,44,-1.10
2019,03,10,03,45,-1.10
2019,03,10,03,46,-1.10
2019,03,10,03,47,-1.10
2019,03,10,03,48,-1.10
2019,03,10,03,49,-1.10
2019,03,10,03,50,-1.00
2019,03,10,03,51,-1.00
2019,03,10,03,52,-1.00
2019,03,10,03,53,-0.90
2019,03,10,03,54,-1.00
2019,03,10,03,55,-0.90
2019,03,10,03,56,-0.90
2019,03,10,03,57,-0.90
2019,03,10,03,58,-0.90
2019,03,10,03,59,-0.80
2019,03,10,04,00,-0.80
2019,03,10,04,01,-0.80
2019,03,10,04,02,-0.80
2019,03,10,04,03,-0.70
2019,03,10,04,04,-0.70
2019,03,10,04,05,-0.70
2019,03,10,04,06,-0.60
2019,03,10,04,07,-0.60
2019,03,10,04,08,-0.60
2019,03,10,04,09,-0.60
2019,03,10,04,10,-0.60
2019,03,10,04,11,-0.60
2019,03,10,04,12,-0.60
2019,03,10,04,13,-0.60
2019,03,10,04,14,-0.60
2019,03,10,04,15,-0.60
2019,03,10,04,16,-0.60
2019,03,10,04,17,-0.60
2019,03,10,04,18,-0.60
2019,03,10,04,19,-0.60
2019,03,10,04,20,-0.60
2019,03,10,04,21,-0.60
2019,03,10,04,22,-0.50
2019,03,10,04,23,-0.50
2019,03,10,04,24,-0.50
2019,03,10,04,25,-0.50
2019,03,10,04,26,-0.50
2019,03,10,04,27,-0.50
2019,03,10,04,28,-0.50
2019,03,10,04,29,-0.50
2019,03,10,04,30,-0.50
2019,03,10,04,31,-0.50
2019,03,10,04,32,-0.60
2019,03,10,04,33,-0.60
2019,03,10,04,34,-0.60
2019,03,10,04,35,-0.60
2019,03,10,04,36,-0.60
2019,03,10,04,37,-0.60
2019,03,10,04,38,-0.60
2019,03,10,04,39,-0.60
2019,03,10,04,40,-0.60
2019,03,10,04,41,-0.60
2019,03,10,04,42,-0.60
2019,03,10,04,43,-0.60
2019,03,10,04,44,-0.60
2019,03,10,04,45,-0.60
2019,03,10,04,46,-0.60
2019,03,10,04,47,-0.60
2019,03,10,04,48,-0.60
2019,03,10,04,49,-0.60
2019,03,10,04,50,-0.60
2019,03,10,04,51,-0.60
2019,03,10,04,52,-0.60
2019,03,10,04,53,-0.60
2019,03,10,04,54,-0.60
2019,03,10,04,55,-0.60
2019,03,10,04,56,-0.60
2019,03,10,04,57,-0.60
2019,03,10,04,58,-0.60
2019,03,10,04,59,-0.60
2019,03,10,05,00,-0.60
2019,03,10,05,01,-0.60
2019,03,10,05,02,-0.60
2019,03,10,05,03,-0.60
2019,03,10,05,04,-0.60
2019,03,10,05,05,-0.70
2019,03,10,05,06,-0.70
2019,03,10,05,07,-0.70
2019,03,10,05,08,-0.70
2019,03,10,05,09,-0.70
2019,03,10,05,10,-0.70
2019,03,10,05,11,-0.70
2019,03,10,05,12,-0.80
2019,03,10,05,13,-0.80
2019,03,10,05,14,-0.80
2019,03,10,05,15,-0.80
2019,03,10,05,16,-0.80
2019,03,10,05,17,-0.80
2019,03,10,05,18,-0.80
2019,03,10,05,19,-0.80
2019,03,10,05,20,-0.80
2019,03,10,05,21,-0.90
2019,03,10,05,22,-0.90
2019,03,10,05,23,-0.90
2019,03,10,05,24,-0.90
2019,03,10,05,25,-0.90
2019,03,10,05,26,-0.90
2019,03,10,05,27,-0.90
2019,03,10,05,28,-0.90
2019,03,10,05,29,-0.80
2019,03,10,05,30,-0.90
2019,03,10,05,31,-0.90
2019,03,10,05,32,-0.90
2019,03,10,05,33,-0.90
2019,03,10,05,34,-0.90
2019,03,10,05,35,-0.90
2019,03,10,05,36,-0.90
2019,03,10,05,37,-1.00
2019,03,10,05,38,-1.00
2019,03,10,05,39,-1.00
2019,03,10,05,40,-1.00
2019,03,10,05,41,-1.00
2019,03,10,05,42,-1.00
2019,03,10,05,43,-1.00
2019,03,10,05,44,-1.00
2019,03,10,05,45,-1.00
2019,03,10,05,46,-1.00
2019,03,10,05,47,-1.00
2019,03,10,05,48,-1.00
2019,03,10,05,49,-1.00
2019,03,10,05,50,-1.00
2019,03,10,05,51,-0.90
2019,03,10,05,52,-0.90
2019,03,10,05,53,-0.90
2019,03,10,05,54,-0.80
2019,03,10,05,55,-0.80
2019,03,10,05,56,-0.80
2019,03,10,05,57,-0.80
2019,03,10,05,58,-0.80
2019,03,10,05,59,-0.80
2019,03,10,06,00,-0.80
2019,03,10,06,01,-0.80
2019,03,10,06,02,-0.80
2019,03,10,06,03,-0.80
2019,03,10,06,04,-0.90
2019,03,10,06,05,-0.90
2019,03,10,06,06,-0.90
2019,03,10,06,07,-0.90
2019,03,10,06,08,-0.90
2019,03,10,06,09,-0.90
2019,03,10,06,10,-0.90
2019,03,10,06,11,-0.90
2019,03,10,06,12,-0.90
2019,03,10,06,13,-0.90
2019,03,10,06,14,-0.90
2019,03,10,06,15,-0.90
2019,03,10,06,16,-0.90
2019,03,10,06,17,-0.90
2019,03,10,06,18,-0.90
2019,03,10,06,19,-0.90
2019,03,10,06,20,-0.90
2019,03,10,06,21,-0.90
2019,03,10,06,22,-0.90
2019,03,10,06,23,-1.00
2019,03,10,06,24,-1.00
2019,03,10,06,25,-1.00
2019,03,10,06,26,-1.00
2019,03,10,06,27,-1.00
2019,03,10,06,28,-1.00
2019,03,10,06,29,-1.00
2019,03,10,06,30,-0.90
2019,03,10,06,31,-0.90
2019,03,10,06,32,-0.90
2019,03,10,06,33,-0.90
2019,03,10,06,34,-0.90
2019,03,10,06,35,-0.90
2019,03,10,06,36,-0.90
2019,03,10,06,37,-0.90
2019,03,10,06,38,-0.90
2019,03,10,06,39,-0.80
2019,03,10,06,40,-0.80
2019,03,10,06,41,-0.80
2019,03,10,06,42,-0.70
2019,03,10,06,43,-0.70
2019,03,10,06,44,-0.70
2019,03,10,06,45,-0.70
2019,03,10,06,46,-0.60
2019,03,10,06,47,-0.60
2019,03,10,06,48,-0.60
2019,03,10,06,49,-0.60
2019,03,10,06,50,-0.60
2019,03,10,06,51,-0.60
2019,03,10,06,52,-0.60
2019,03,10,06,53,-0.60
2019,03,10,06,54,-0.60
2019,03,10,06,55,-0.60
2019,03,10,06,56,-0.60
2019,03,10,06,57,-0.60
2019,03,10,06,58,-0.50
2019,03,10,06,59,-0.60
2019,03,10,07,00,-0.60
2019,03,10,07,01,-0.60
2019,03,10,07,02,-0.60
2019,03,10,07,03,-0.60
2019,03,10,07,04,-0.60
2019,03,10,07,05,-0.70
2019,03,10,07,06,-0.70
2019,03,10,07,07,-0.70
2019,03,10,07,08,-0.80
2019,03,10,07,09,-0.80
2019,03,10,07,10,-0.80
2019,03,10,07,11,-0.80
2019,03,10,07,12,-0.70
2019,03,10,07,13,-0.80
2019,03,10,07,14,-0.80
2019,03,10,07,15,-0.80
2019,03,10,07,16,-0.80
2019,03,10,07,17,-0.80
2019,03,10,07,18,-0.80
2019,03,10,07,19,-0.80
2019,03,10,07,20,-0.80
2019,03,10,07,21,-0.90
2019,03,10,07,22,-0.90
2019,03,10,07,23,-0.90
2019,03,10,07,24,-0.90
2019,03,10,07,25,-0.90
2019,03,10,07,26,-0.90
2019,03,10,07,27,-0.90
2019,03,10,07,28,-0.90
2019,03,10,07,29,-0.90
2019,03,10,07,30,-0.90
2019,03,10,07,31,-0.90
2019,03,10,07,32,-1.00
2019,03,10,07,33,-1.00
2019,03,10,07,34,-1.00
2019,03,10,07,35,-1.00
2019,03,10,07,36,-1.00
2019,03,10,07,37,-0.90
2019,03,10,07,38,-0.90
2019,03,10,07,39,-0.90
2019,03,10,07,40,-0.90
2019,03,10,07,41,-0.90
2019,03,10,07,42,-0.90
2019,03,10,07,43,-1.00
2019,03,10,07,44,-1.00
2019,03,10,07,45,-1.00
2019,03,10,07,46,-1.10
2019,03,10,07,47,-1.10
2019,03,10,07,48,-1.10
2019,03,10,07,49,-1.10
2019,03,10,07,50,-1.20
2019,03,10,07,51,-1.20
2019,03,10,07,52,-1.20
2019,03,10,07,53,-1.20
2019,03,10,07,54,-1.20
2019,03,10,07,55,-1.20
2019,03,10,07,56,-1.20
2019,03,10,07,57,-1.20
2019,03,10,07,58,-1.20
2019,03,10,07,59,-1.20
2019,03,10,08,00,-1.20
2019,03,10,08,01,-1.20
2019,03,10,08,02,-1.30
2019,03,10,08,03,-1.30
2019,03,10,08,04,-1.30
2019,03,10,08,05,-1.30
2019,03,10,08,06,-1.30
2019,03,10,08,07,-1.30
2019,03,10,08,08,-1.30
2019,03,10,08,09,-1.30
2019,03,10,08,10,-1.30
2019,03,10,08,11,-1.30
2019,03,10,08,12,-1.20
2019,03,10,08,13,-1.20
2019,03,10,08,14,-1.20
2019,03,10,08,15,-1.20
2019,03,10,08,16,-1.20
2019,03,10,08,17,-1.20
2019,03,10,08,18,-1.20
2019,03,10,08,19,-1.20
2019,03,10,08,20,-1.20
2019,03,10,08,21,-1.20
2019,03,10,08,22,-1.20
2019,03,10,08,23,-1.20
2019,03,10,08,24,-1.20
2019,03,10,08,25,-1.10
2019,03,10,08,26,-1.20
2019,03,10,08,27,-1.10
2019,03,10,08,28,-1.10
2019,03,10,08,29,-1.10
2019,03,10,08,30,-1.10
2019,03,10,08,31,-1.10
2019,03,10,08,32,-1.10
2019,03,10,08,33,-1.10
2019,03,10,08,34,-1.10
2019,03,10,08,35,-1.00
2019,03,10,08,36,-1.00
2019,03,10,08,37,-1.00
2019,03,10,08,38,-1.00
2019,03,10,08,39,-0.90
2019,03,10,08,40,-0.90
2019,03,10,08,41,-0.90
2019,03,10,08,42,-0.90
2019,03,10,08,43,-0.90
2019,03,10,08,44,-0.90
2019,03,10,08,45,-0.90
2019,03,10,08,46,-0.90
2019,03,10,08,47,-0.90
2019,03,10,08,48,-0.90
2019,03,10,08,49,-0.90
2019,03,10,08,50,-0.80
2019,03,10,08,51,-0.80
2019,03,10,08,52,-0.70
2019,03,10,08,53,-0.70
2019,03,10,08,54,-0.70
2019,03,10,08,55,-0.60
2019,03,10,08,56,-0.60
2019,03,10,08,57,-0.60
2019,03,10,08,58,-0.50
2019,03,10,08,59,-0.50
2019,03,10,09,00,-0.50
2019,03,10,09,01,-0.50
2019,03,10,09,02,-0.40
2019,03,10,09,03,-0.40
2019,03,10,09,04,-0.40
2019,03,10,09,05,-0.30
2019,03,10,09,06,-0.30
2019,03,10,09,07,-0.30
2019,03,10,09,08,-0.20
2019,03,10,09,09,-0.20
2019,03,10,09,10,-0.20
2019,03,10,09,11,-0.10
2019,03,10,09,12,-0.10
2019,03,10,09,13,0.00
2019,03,10,09,14,0.00
2019,03,10,09,15,0.10
2019,03,10,09,16,0.10
2019,03,10,09,17,0.20
2019,03,10,09,18,0.30
2019,03,10,09,19,0.30
2019,03,10,09,20,0.40
2019,03,10,09,21,0.40
2019,03,10,09,22,0.50
2019,03,10,09,23,0.60
2019,03,10,09,24,0.70
2019,03,10,09,25,0.70
2019,03,10,09,26,0.80
2019,03,10,09,27,0.80
2019,03,10,09,28,0.90
2019,03,10,09,29,0.90
2019,03,10,09,30,1.00
2019,03,10,09,31,1.00
2019,03,10,09,32,1.10
2019,03,10,09,33,1.10
2019,03,10,09,34,1.20
2019,03,10,09,35,1.20
2019,03,10,09,36,1.30
2019,03,10,09,37,1.30
2019,03,10,09,38,1.30
2019,03,10,09,39,1.40
2019,03,10,09,40,1.40
2019,03,10,09,41,1.40
2019,03,10,09,42,1.50
2019,03,10,09,43,1.50
2019,03,10,09,44,1.50
2019,03,10,09,45,1.60
2019,03,10,09,46,1.60
2019,03,10,09,47,1.60
2019,03,10,09,48,1.70
2019,03,10,09,49,1.70
2019,03,10,09,50,1.70
2019,03,10,09,51,1.70
2019,03,10,09,52,1.80
2019,03,10,09,53,1.80
2019,03,10,09,54,1.80
2019,03,10,09,55,1.80
2019,03,10,09,56,1.80
2019,03,10,09,57,1.90
2019,03,10,09,58,1.90
2019,03,10,09,59,1.90
2019,03,10,10,00,1.90
2019,03,10,10,01,1.90
2019,03,10,10,02,2.00
2019,03,10,10,03,2.00
2019,03,10,10,04,2.10
2019,03,10,10,05,2.10
2019,03,10,10,06,2.10
2019,03,10,10,07,2.20
2019,03,10,10,08,2.20
2019,03,10,10,09,2.30
2019,03,10,10,10,2.30
2019,03,10,10,11,2.40
2019,03,10,10,12,2.40
2019,03,10,10,13,2.50
2019,03,10,10,14,2.60
2019,03,10,10,15,2.60
2019,03,10,10,16,2.70
2019,03,10,10,17,2.70
2019,03,10,10,18,2.70
2019,03,10,10,19,2.80
2019,03,10,10,20,2.80
2019,03,10,10,21,2.80
2019,03,10,10,22,2.80
2019,03,10,10,23,2.90
2019,03,10,10,24,2.90
2019,03,10,10,25,3.00
2019,03,10,10,26,3.00
2019,03,10,10,27,3.10
2019,03,10,10,28,3.20
2019,03,10,10,29,3.30
2019,03,10,10,30,3.30
2019,03,10,10,31,3.40
2019,03,10,10,32,3.40
2019,03,10,10,33,3.50
2019,03,10,10,34,3.50
2019,03,10,10,35,3.60
2019,03,10,10,36,3.60
2019,03,10,10,37,3.70
2019,03,10,10,38,3.70
2019,03,10,10,39,3.80
2019,03,10,10,40,3.80
2019,03,10,10,41,3.80
2019,03,10,10,42,3.90
2019,03,10,10,43,3.90
2019,03,10,10,44,4.00
2019,03,10,10,45,4.10
2019,03,10,10,46,4.10
2019,03,10,10,47,4.20
2019,03,10,10,48,4.20
2019,03,10,10,49,4.20
2019,03,10,10,50,4.30
2019,03,10,10,51,4.30
2019,03,10,10,52,4.30
2019,03,10,10,53,4.40
2019,03,10,10,54,4.40
2019,03,10,10,55,4.40
2019,03,10,10,56,4.40
2019,03,10,10,57,4.50
2019,03,10,10,58,4.50
2019,03,10,10,59,4.50
2019,03,10,11,00,4.50
2019,03,10,11,01,4.50
2019,03,10,11,02,4.50
2019,03,10,11,03,4.50
2019,03,10,11,04,4.50
2019,03,10,11,05,4.60
2019,03,10,11,06,4.60
2019,03,10,11,07,4.70
2019,03,10,11,08,4.80
2019,03,10,11,09,4.80
2019,03,10,11,10,4.90
2019,03,10,11,11,4.90
2019,03,10,11,12,4.90
2019,03,10,11,13,5.00
2019,03,10,11,14,5.00
2019,03,10,11,15,5.10
2019,03,10,11,16,5.10
2019,03,10,11,17,5.20
2019,03,10,11,18,5.20
2019,03,10,11,19,5.20
2019,03,10,11,20,5.30
2019,03,10,11,21,5.30
2019,03,10,11,22,5.40
2019,03,10,11,23,5.40
2019,03,10,11,24,5.40
2019,03,10,11,25,5.40
2019,03,10,11,26,5.50
2019,03,10,11,27,5.50
2019,03,10,11,28,5.50
2019,03,10,11,29,5.60
2019,03,10,11,30,5.60
2019,03,10,11,31,5.70
2019,03,10,11,32,5.70
2019,03,10,11,33,5.80
2019,03,10,11,34,5.80
2019,03,10,11,35,5.80
2019,03,10,11,36,5.80
2019,03,10,11,37,5.80
2019,03,10,11,38,5.80
2019,03,10,11,39,5.90
2019,03,10,11,40,5.90
2019,03,10,11,41,5.90
2019,03,10,11,42,5.90
2019,03,10,11,43,5.90
2019,03,10,11,44,5.90
2019,03,10,11,45,6.00
2019,03,10,11,46,6.00
2019,03,10,11,47,6.00
2019,03,10,11,48,6.10
2019,03,10,11,49,6.10
2019,03,10,11,50,6.20
2019,03,10,11,51,6.20
2019,03,10,11,52,6.10
2019,03,10,11,53,6.20
2019,03,10,11,54,6.10
2019,03,10,11,55,6.10
2019,03,10,11,56,6.10
2019,03,10,11,57,6.10
2019,03,10,11,58,6.10
2019,03,10,11,59,6.10
2019,03,10,12,00,6.10
2019,03,10,12,01,6.00
2019,03,10,12,02,6.00
2019,03,10,12,03,6.00
2019,03,10,12,04,6.00
2019,03,10,12,05,6.00
2019,03,10,12,06,6.10
2019,03,10,12,07,6.10
2019,03,10,12,08,6.10
2019,03,10,12,09,6.20
2019,03,10,12,10,6.20
2019,03,10,12,11,6.30
2019,03,10,12,12,6.30
2019,03,10,12,13,6.30
2019,03,10,12,14,6.30
2019,03,10,12,15,6.40
2019,03,10,12,16,6.40
2019,03,10,12,17,6.40
2019,03,10,12,18,6.50
2019,03,10,12,19,6.50
2019,03,10,12,20,6.40
2019,03,10,12,21,6.40
2019,03,10,12,22,6.40
2019,03,10,12,23,6.40
2019,03,10,12,24,6.40
2019,03,10,12,25,6.30
2019,03,10,12,26,6.30
2019,03,10,12,27,6.30
2019,03,10,12,28,6.30
2019,03,10,12,29,6.30
2019,03,10,12,30,6.30
2019,03,10,12,31,6.40
2019,03,10,12,32,6.40
2019,03,10,12,33,6.40
2019,03,10,12,34,6.40
2019,03,10,12,35,6.50
2019,03,10,12,36,6.50
2019,03,10,12,37,6.60
2019,03,10,12,38,6.60
2019,03,10,12,39,6.70
2019,03,10,12,40,6.70
2019,03,10,12,41,6.70
2019,03,10,12,42,6.70
2019,03,10,12,43,6.70
2019,03,10,12,44,6.70
2019,03,10,12,45,6.80
2019,03,10,12,46,6.80
2019,03,10,12,47,6.80
2019,03,10,12,48,6.80
2019,03,10,12,49,6.90
2019,03,10,12,50,6.90
2019,03,10,12,51,6.90
2019,03,10,12,52,6.90
2019,03,10,12,53,7.00
2019,03,10,12,54,6.90
2019,03,10,12,55,6.90
2019,03,10,12,56,6.90
2019,03,10,12,57,6.90
2019,03,10,12,58,6.90
2019,03,10,12,59,7.00
2019,03,10,13,00,7.00
2019,03,10,13,01,7.10
2019,03,10,13,02,7.10
2019,03,10,13,03,7.10
2019,03,10,13,04,7.10
2019,03,10,13,05,7.10
2019,03,10,13,06,7.10
2019,03,10,13,07,7.10
2019,03,10,13,08,7.10
2019,03,10,13,09,7.10
2019,03,10,13,10,7.10
2019,03,10,13,11,7.10
2019,03,10,13,12,7.10
2019,03,10,13,13,7.10
2019,03,10,13,14,7.10
2019,03,10,13,15,7.00
2019,03,10,13,16,7.00
2019,03,10,13,17,7.00
2019,03,10,13,18,7.10
2019,03,10,13,19,7.10
2019,03,10,13,20,7.10
2019,03,10,13,21,7.20
2019,03,10,13,22,7.20
2019,03,10,13,23,7.20
2019,03,10,13,24,7.20
2019,03,10,13,25,7.20
2019,03,10,13,26,7.20
2019,03,10,13,27,7.20
2019,03,10,13,28,7.30
2019,03,10,13,29,7.30
2019,03,10,13,30,7.40
2019,03,10,13,31,7.40
2019,03,10,13,32,7.50
2019,03,10,13,33,7.60
2019,03,10,13,34,7.60
2019,03,10,13,35,7.70
2019,03,10,13,36,7.80
2019,03,10,13,37,7.80
2019,03,10,13,38,7.80
2019,03,10,13,39,7.90
2019,03,10,13,40,7.90
2019,03,10,13,41,8.00
2019,03,10,13,42,8.00
2019,03,10,13,43,7.90
2019,03,10,13,44,7.90
2019,03,10,13,45,7.90
2019,03,10,13,46,7.80
2019,03,10,13,47,7.80
2019,03,10,13,48,7.80
2019,03,10,13,49,7.80
2019,03,10,13,50,7.80
2019,03,10,13,51,7.90
2019,03,10,13,52,7.90
2019,03,10,13,53,7.90
2019,03,10,13,54,8.00
2019,03,10,13,55,7.90
2019,03,10,13,56,7.90
2019,03,10,13,57,7.90
2019,03,10,13,58,7.90
2019,03,10,13,59,7.90
2019,03,10,14,00,7.90
2019,03,10,14,01,8.00
2019,03,10,14,02,8.00
2019,03,10,14,03,8.10
2019,03,10,14,04,8.10
2019,03,10,14,05,8.20
2019,03,10,14,06,8.20
2019,03,10,14,07,8.20
2019,03,10,14,08,8.20
2019,03,10,14,09,8.20
2019,03,10,14,10,8.20
2019,03,10,14,11,8.20
2019,03,10,14,12,8.20
2019,03,10,14,13,8.20
2019,03,10,14,14,8.20
2019,03,10,14,15,8.20
2019,03,10,14,16,8.20
2019,03,10,14,17,8.20
2019,03,10,14,18,8.20
2019,03,10,14,19,8.20
2019,03,10,14,20,8.20
2019,03,10,14,21,8.20
2019,03,10,14,22,8.20
2019,03,10,14,23,8.20
2019,03,10,14,24,8.20
2019,03,10,14,25,8.20
2019,03,10,14,26,8.20
2019,03,10,14,27,8.20
2019,03,10,14,28,8.20
2019,03,10,14,29,8.20
2019,03,10,14,30,8.20
2019,03,10,14,31,8.20
2019,03,10,14,32,8.20
2019,03,10,14,33,8.20
2019,03,10,14,34,8.20
2019,03,10,14,35,8.20
2019,03,10,14,36,8.10
2019,03,10,14,37,8.10
2019,03,10,14,38,8.10
2019,03,10,14,39,8.10
2019,03,10,14,40,8.10
2019,03,10,14,41,8.10
2019,03,10,14,42,8.10
2019,03,10,14,43,8.10
2019,03,10,14,44,8.10
2019,03,10,14,45,8.10
2019,03,10,14,46,8.20
2019,03,10,14,47,8.20
2019,03,10,14,48,8.20
2019,03,10,14,49,8.20
2019,03,10,14,50,8.20
2019,03,10,14,51,8.20
2019,03,10,14,52,8.20
2019,03,10,14,53,8.20
2019,03,10,14,54,8.20
2019,03,10,14,55,8.20
2019,03,10,14,56,8.20
2019,03,10,14,57,8.10
2019,03,10,14,58,8.10
2019,03,10,14,59,8.10
2019,03,10,15,00,8.00
2019,03,10,15,01,8.00
2019,03,10,15,02,8.00
2019,03,10,15,03,8.00
2019,03,10,15,04,8.00
2019,03,10,15,05,8.00
2019,03,10,15,06,8.10
2019,03,10,15,07,8.10
2019,03,10,15,08,8.10
2019,03,10,15,09,8.10
2019,03,10,15,10,8.10
2019,03,10,15,11,8.10
2019,03,10,15,12,8.10
2019,03,10,15,13,8.10
2019,03,10,15,14,8.10
2019,03,10,15,15,8.20
2019,03,10,15,16,8.20
2019,03,10,15,17,8.30
2019,03,10,15,18,8.40
2019,03,10,15,19,8.50
2019,03,10,15,20,8.60
2019,03,10,15,21,8.70
2019,03,10,15,22,8.80
2019,03,10,15,23,8.80
2019,03,10,15,24,8.90
2019,03,10,15,25,9.00
2019,03,10,15,26,9.00
2019,03,10,15,27,9.00
2019,03,10,15,28,9.00
2019,03,10,15,29,9.00
2019,03,10,15,30,9.10
2019,03,10,15,31,9.10
2019,03,10,15,32,9.10
2019,03,10,15,33,9.10
2019,03,10,15,34,9.00
2019,03,10,15,35,9.00
2019,03,10,15,36,9.00
2019,03,10,15,37,9.00
2019,03,10,15,38,8.90
2019,03,10,15,39,8.90
2019,03,10,15,40,8.90
2019,03,10,15,41,8.90
2019,03,10,15,42,8.90
2019,03,10,15,43,8.90
2019,03,10,15,44,8.90
2019,03,10,15,45,8.90
2019,03,10,15,46,8.90
2019,03,10,15,47,8.90
2019,03,10,15,48,8.90
2019,03,10,15,49,8.90
2019,03,10,15,50,8.90
2019,03,10,15,51,9.00
2019,03,10,15,52,9.00
2019,03,10,15,53,9.00
2019,03,10,15,54,9.00
2019,03,10,15,55,9.00
2019,03,10,15,56,9.00
2019,03,10,15,57,8.90
2019,03,10,15,58,8.90
2019,03,10,15,59,8.90
2019,03,10,16,00,8.80
2019,03,10,16,01,8.80
2019,03,10,16,02,8.80
2019,03,10,16,03,8.70
2019,03,10,16,04,8.60
2019,03,10,16,05,8.60
2019,03,10,16,06,8.60
2019,03,10,16,07,8.50
2019,03,10,16,08,8.50
2019,03,10,16,09,8.40
2019,03,10,16,10,8.40
2019,03,10,16,11,8.30
2019,03,10,16,12,8.30
2019,03,10,16,13,8.30
2019,03,10,16,14,8.30
2019,03,10,16,15,8.30
2019,03,10,16,16,8.20
2019,03,10,16,17,8.20
2019,03,10,16,18,8.20
2019,03,10,16,19,8.10
2019,03,10,16,20,8.10
2019,03,10,16,21,8.10
2019,03,10,16,22,8.10
2019,03,10,16,23,8.10
2019,03,10,16,24,8.00
2019,03,10,16,25,8.00
2019,03,10,16,26,8.00
2019,03,10,16,27,8.00
2019,03,10,16,28,8.00
2019,03,10,16,29,7.90
2019,03,10,16,30,7.90
2019,03,10,16,31,7.90
2019,03,10,16,32,7.90
2019,03,10,16,33,7.90
2019,03,10,16,34,7.90
2019,03,10,16,35,7.90
2019,03,10,16,36,7.90
2019,03,10,16,37,7.90
2019,03,10,16,38,7.90
2019,03,10,16,39,7.90
2019,03,10,16,40,7.80
2019,03,10,16,41,7.80
2019,03,10,16,42,7.80
2019,03,10,16,43,7.80
2019,03,10,16,44,7.80
2019,03,10,16,45,7.70
2019,03,10,16,46,7.70
2019,03,10,16,47,7.70
2019,03,10,16,48,7.70
2019,03,10,16,49,7.70
2019,03,10,16,50,7.70
2019,03,10,16,51,7.70
2019,03,10,16,52,7.70
2019,03,10,16,53,7.70
2019,03,10,16,54,7.70
2019,03,10,16,55,7.70
2019,03,10,16,56,7.70
2019,03,10,16,57,7.70
2019,03,10,16,58,7.70
2019,03,10,16,59,7.70
2019,03,10,17,00,7.80
2019,03,10,17,01,7.80
2019,03,10,17,02,7.70
2019,03,10,17,03,7.70
2019,03,10,17,04,7.70
2019,03,10,17,05,7.70
2019,03,10,17,06,7.70
2019,03,10,17,07,7.70
2019,03,10,17,08,7.70
2019,03,10,17,09,7.70
2019,03,10,17,10,7.60
2019,03,10,17,11,7.60
2019,03,10,17,12,7.60
2019,03,10,17,13,7.60
2019,03,10,17,14,7.50
2019,03,10,17,15,7.50
2019,03,10,17,16,7.50
2019,03,10,17,17,7.50
2019,03,10,17,18,7.50
2019,03,10,17,19,7.50
2019,03,10,17,20,7.50
2019,03,10,17,21,7.40
2019,03,10,17,22,7.40
2019,03,10,17,23,7.40
2019,03,10,17,24,7.40
2019,03,10,17,25,7.40
2019,03,10,17,26,7.40
2019,03,10,17,27,7.40
2019,03,10,17,28,7.40
2019,03,10,17,29,7.30
2019,03,10,17,30,7.30
2019,03,10,17,31,7.30
2019,03,10,17,32,7.30
2019,03,10,17,33,7.30
2019,03,10,17,34,7.30
2019,03,10,17,35,7.30
2019,03,10,17,36,7.30
2019,03,10,17,37,7.30
2019,03,10,17,38,7.20
2019,03,10,17,39,7.20
2019,03,10,17,40,7.20
2019,03,10,17,41,7.20
2019,03,10,17,42,7.20
2019,03,10,17,43,7.20
2019,03,10,17,44,7.20
2019,03,10,17,45,7.20
2019,03,10,17,46,7.20
2019,03,10,17,47,7.10
2019,03,10,17,48,7.10
2019,03,10,17,49,7.10
2019,03,10,17,50,7.10
2019,03,10,17,51,7.10
2019,03,10,17,52,7.10
2019,03,10,17,53,7.10
2019,03,10,17,54,7.10
2019,03,10,17,55,7.00
2019,03,10,17,56,7.00
2019,03,10,17,57,7.00
2019,03,10,17,58,7.00
2019,03,10,17,59,6.90
2019,03,10,18,00,6.90
2019,03,10,18,01,6.90
2019,03,10,18,02,6.90
2019,03,10,18,03,6.90
2019,03,10,18,04,6.90
2019,03,10,18,05,6.90
2019,03,10,18,06,6.90
2019,03,10,18,07,6.80
2019,03,10,18,08,6.80
2019,03,10,18,09,6.80
2019,03,10,18,10,6.80
2019,03,10,18,11,6.80
2019,03,10,18,12,6.80
2019,03,10,18,13,6.80
2019,03,10,18,14,6.80
2019,03,10,18,15,6.70
2019,03,10,18,16,6.70
2019,03,10,18,17,6.70
2019,03,10,18,18,6.70
2019,03,10,18,19,6.70
2019,03,10,18,20,6.70
2019,03,10,18,21,6.70
2019,03,10,18,22,6.60
2019,03,10,18,23,6.60
2019,03,10,18,24,6.60
2019,03,10,18,25,6.60
2019,03,10,18,26,6.60
2019,03,10,18,27,6.50
2019,03,10,18,28,6.50
2019,03,10,18,29,6.50
2019,03,10,18,30,6.40
2019,03,10,18,31,6.40
2019,03,10,18,32,6.40
2019,03,10,18,33,6.40
2019,03,10,18,34,6.40
2019,03,10,18,35,6.40
2019,03,10,18,36,6.40
2019,03,10,18,37,6.40
2019,03,10,18,38,6.30
2019,03,10,18,39,6.30
2019,03,10,18,40,6.30
2019,03,10,18,41,6.30
2019,03,10,18,42,6.30
2019,03,10,18,43,6.30
2019,03,10,18,44,6.30